Cosmos 1470 - Orbit

View from above orbital plane
View from above orbital plane
View from above satellite
View from above satellite

Ground track
Ground track

The orbit data is extracted from the following two-line orbital elements,

1 14147U 83061A   13139.47994857  .00003377  00000-0  23958-3 0  7128
2 14147 082.5095 054.2288 0014148 358.8224 001.2967 15.04382244380264
Epoch (UTC): 19 May 2013 11:31:07
Eccentricity: 0.0014148
inclination: 82.5095°
perigee height: 543 km
apogee height: 563 km
right ascension of ascending node: 54.2288°
argument of perigee: 358.8224°
revolutions per day: 15.04382244
mean anomaly at epoch: 1.2967°
orbit number at epoch: 38026

The dashed part of the orbit path shows where the satellite is in the earth's shadow,  

Developed and maintained by Chris Peat, Heavens-Above GmbH. Please read the updated FAQ before sending e-mail. Imprint. DLR